Regional Weather Roundup
Issued by NWS Little Rock, AR

Home | Current Version | Previous Version | Graphics & Text | Print | Product List | Glossary On
Versions: 1 2 3 4 5 6 7 8 9 10 11 12 13 14 15 16 17 18 19 20 21 22 23 24 25 26 27
000
ASUS44 KLZK 231805
RWRLZK

WEATHER ROUNDUP FOR ARKANSAS
NATIONAL WEATHER SERVICE LITTLE ROCK AR
100 PM CDT THU OCT 23 2014

NOTE: "FAIR" INDICATES FEW OR NO CLOUDS BELOW 12,000 FEET WITH NO
SIGNIFICANT WEATHER AND/OR OBSTRUCTIONS TO VISIBILITY.

ARZ001-003-010-029-231900-
NORTHWEST ARKANSAS

CITY           SKY/WX    TMP DP  RH WIND       PRES   REMARKS
FAYETTEVILLE   LGT RAIN  58  53  84 CALM      30.19F
6HR MIN TEMP:  52; 6HR MAX TEMP:  58; 6HR PCP:  0.04;

FORT SMITH     MOSUNNY   67  49  52 E7        30.18F
6HR MIN TEMP:  54; 6HR MAX TEMP:  67;

HARRISON       CLOUDY    61  49  64 SE5       30.18F
6HR MIN TEMP:  48; 6HR MAX TEMP:  62;

BENTONVILLE    CLOUDY    55  50  82 SW8       30.20S
6HR MIN TEMP:  54; 6HR MAX TEMP:  57; 6HR PCP:  0.09;

ROGERS         LGT RAIN  58  53  84 SW7       30.20S
6HR MIN TEMP:  54; 6HR MAX TEMP:  58; 6HR PCP:  0.06;

SILOAM SPGS    CLOUDY    57  48  72 CALM      30.21F
6HR MIN TEMP:  54; 6HR MAX TEMP:  57; 6HR PCP:  0.06;

HIGHFILL       LGT RAIN  55  53  93 S5        30.19F
6HR MIN TEMP:  55; 6HR MAX TEMP:  57; 6HR PCP:  0.15;

SPRINGDALE     PTSUNNY   59  52  77 SW6       30.21F
$$

ARZ004-005-016-231900-
NORTH CENTRAL ARKANSAS

CITY           SKY/WX    TMP DP  RH WIND       PRES   REMARKS
BATESVILLE     CLOUDY    54  46  76 CALM      30.21F
6HR MIN TEMP:  41; 6HR MAX TEMP:  54;

FLIPPIN        CLOUDY    59  45  58 SE3       30.19F
6HR MIN TEMP:  45; 6HR MAX TEMP:  59;

MTN HOME       CLOUDY    59  46  62 S7        30.18F
6HR MIN TEMP:  46; 6HR MAX TEMP:  59;

$$

ARZ040-041-231900-
WEST CENTRAL ARKANSAS

CITY           SKY/WX    TMP DP  RH WIND       PRES   REMARKS
MENA           MOSUNNY   64  52  63 CALM      30.19F
MOUNT IDA      PTSUNNY   63  48  58 CALM      30.16F
6HR MIN TEMP:  50; 6HR MAX TEMP:  63;

$$

ARZ009-017-025-026-028-231900-
NORTHEAST ARKANSAS

CITY           SKY/WX    TMP DP  RH WIND       PRES   REMARKS
CORNING        FAIR      55  46  71 CALM      30.22F
JONESBORO      CLOUDY    59  44  57 CALM      30.19F
6HR MIN TEMP:  42; 6HR MAX TEMP:  60;

NEWPORT        CLOUDY    57  48  72 CALM      30.22F
6HR MIN TEMP:  42; 6HR MAX TEMP:  57;

WALNUT RIDGE   CLOUDY    55  45  67 CALM      30.21F
6HR MIN TEMP:  43; 6HR MAX TEMP:  55;

BLYTHEVILLE    CLOUDY    63  46  54 N5        30.20F
6HR MIN TEMP:  40; 6HR MAX TEMP:  63;

NW BLYTHEVILLE CLOUDY    61  45  55 NE3       30.20
$$

ARZ022-023-033-042-044-231900-
CENTRAL ARKANSAS

CITY           SKY/WX    TMP DP  RH WIND       PRES   REMARKS
LITTLE ROCK    CLOUDY    62  45  53 NE3       30.19F
6HR MIN TEMP:  47; 6HR MAX TEMP:  62;

N LITTLE ROCK  CLOUDY    60  51  71 N5        30.19F
6HR MIN TEMP:  49; 6HR MAX TEMP:  61;

JACKSONVILLE   CLOUDY    58  48  71 N3        30.19F
6HR MIN TEMP:  44; 6HR MAX TEMP:  58;

SEARCY         CLOUDY    56  47  71 CALM      30.22F
6HR MIN TEMP:  42; 6HR MAX TEMP:  56;

HOT SPRINGS    CLOUDY    61  49  64 NW5       30.19F
6HR MIN TEMP:  50; 6HR MAX TEMP:  61;

RUSSELLVILLE   PTSUNNY   62  46  55 VRB3      30.19F
6HR MIN TEMP:  49; 6HR MAX TEMP:  62;

$$

ARZ036-231900-
EAST ARKANSAS

CITY           SKY/WX    TMP DP  RH WIND       PRES   REMARKS
WEST MEMPHIS   CLOUDY    62  43  49 VRB5      30.18F
6HR MIN TEMP:  41; 6HR MAX TEMP:  63;

$$

ARZ050-053-066-070-073-231900-
SOUTHWEST ARKANSAS

CITY           SKY/WX    TMP DP  RH WIND       PRES   REMARKS
ARKADELPHIA    FAIR      63  50  62 CALM      30.19F
6HR MIN TEMP:  51; 6HR MAX TEMP:  63;

CAMDEN         CLOUDY    63  48  59 CALM      30.19F
TEXARKANA      MOSUNNY   66  46  48 VRB3      30.18F
6HR MIN TEMP:  52; 6HR MAX TEMP:  66;

EL DORADO      CLOUDY    57  50  77 W3        30.19F
6HR MIN TEMP:  49; 6HR MAX TEMP:  58;

DE QUEEN       MOSUNNY   67  48  50 E5        30.16F
6HR MIN TEMP:  53; 6HR MAX TEMP:  68;

$$

ARZ056-057-069-231900-
SOUTHEAST ARKANSAS

CITY           SKY/WX    TMP DP  RH WIND       PRES   REMARKS
PINE BLUFF     CLOUDY    59  47  64 CALM      30.19F
6HR MIN TEMP:  47; 6HR MAX TEMP:  59;

STUTTGART      CLOUDY    57  48  72 N3        30.20F
6HR MIN TEMP:  45; 6HR MAX TEMP:  57;

MONTICELLO     CLOUDY    60  49  66 CALM      30.17F
6HR MIN TEMP:  47; 6HR MAX TEMP:  60;


$$





USA.gov is the U.S. government's official web portal to all federal, state and local government web resources and services.